Location: Gadern
(49.5873°N, 8.8138°E)
Time: 16:34:03
(UTC+00:00)

Cosmos 1500 Rocket - Pass Details

Date: 19 May 2025
Orbit: 598 x 623 km, 82.5° (Epoch: 16 June)

Event Time Altitude Azimuth Distance (km) Brightness Sun altitude
Rises 22:46:01 0° 349° (N) 2,879 8.6 -20.0°
Reaches altitude 10° 22:48:14 10° 349° (N) 1,974 7.4 -20.0°
Maximum altitude 22:52:37 86° 262° (W) 621 3.4 -20.1°
Enters shadow 22:53:38 53° 176° (S) 760 3.6 -20.2°
